Location: Bennemühlen
(52.5740°N, 9.7135°E)
Time: 16:59:33
(UTC+00:00)

SL-16 R/B - Pass Details

Date: 19 May 2025
Orbit: 841 x 844 km, 71.0° (Epoch: 17 June)

Event Time Altitude Azimuth Distance (km) Brightness Sun altitude
Rises 20:56:06 0° 329° (NNW) 3,415 7.6 -11.2°
Reaches altitude 10° 20:58:48 10° 339° (NNW) 2,477 6.1 -11.4°
Maximum altitude 21:03:56 33° 43° (NE) 1,381 3.5 -11.9°
Drops below altitude 10° 21:09:02 10° 107° (ESE) 2,467 4.2 -12.3°
Enters shadow 21:09:28 - 109° (ESE) 2,609 4.3 -12.3°
